TimeEDT,TemperatureF,Dew PointF,Humidity,Sea Level PressureIn,VisibilityMPH,Wind Direction,Wind SpeedMPH,Gust SpeedMPH,PrecipitationIn,Events,Conditions,WindDirDegrees,DateUTC
12:53 AM,69.1,51.1,53,30.02,10.0,Variable,5.8,-,N/A,,Clear,0,2013-04-10 04:53:00
1:53 AM,66.9,51.1,57,30.03,10.0,WSW,3.5,-,N/A,,Clear,240,2013-04-10 05:53:00
2:53 AM,66.9,51.1,57,30.01,10.0,SW,3.5,-,N/A,,Clear,230,2013-04-10 06:53:00
3:53 AM,66.9,51.1,57,30.00,10.0,Calm,Calm,-,N/A,,Clear,0,2013-04-10 07:53:00
4:53 AM,64.0,51.1,63,29.98,10.0,SSW,3.5,-,N/A,,Clear,210,2013-04-10 08:53:00
5:53 AM,63.0,50.0,63,29.98,10.0,South,4.6,-,N/A,,Clear,190,2013-04-10 09:53:00
6:53 AM,64.9,50.0,58,30.00,10.0,SSW,3.5,-,N/A,,Clear,200,2013-04-10 10:53:00
7:53 AM,64.0,51.1,63,30.02,10.0,Variable,3.5,-,N/A,,Clear,0,2013-04-10 11:53:00
8:53 AM,69.1,52.0,54,30.04,10.0,Variable,3.5,-,N/A,,Clear,0,2013-04-10 12:53:00
9:53 AM,71.1,52.0,51,30.04,10.0,South,6.9,-,N/A,,Clear,180,2013-04-10 13:53:00
10:53 AM,77.0,55.0,47,30.04,10.0,SW,10.4,21.9,N/A,,Scattered Clouds,220,2013-04-10 14:53:00
11:53 AM,80.1,55.0,42,30.04,10.0,Variable,5.8,19.6,N/A,,Partly Cloudy,0,2013-04-10 15:53:00
12:53 PM,80.1,55.0,42,30.02,10.0,WSW,8.1,19.6,N/A,,Overcast,240,2013-04-10 16:53:00
1:53 PM,82.0,55.9,41,30.00,10.0,Variable,3.5,-,N/A,,Mostly Cloudy,0,2013-04-10 17:53:00
2:53 PM,80.1,54.0,40,29.99,10.0,WSW,8.1,17.3,N/A,,Partly Cloudy,250,2013-04-10 18:53:00
3:53 PM,82.0,53.1,37,29.94,10.0,Variable,6.9,-,N/A,,Partly Cloudy,0,2013-04-10 19:53:00
4:53 PM,84.0,53.1,34,29.90,10.0,SSW,9.2,-,N/A,,Partly Cloudy,200,2013-04-10 20:53:00
5:53 PM,84.9,51.1,31,29.88,10.0,Variable,5.8,-,N/A,,Partly Cloudy,0,2013-04-10 21:53:00
6:53 PM,82.9,48.9,31,29.87,10.0,WSW,8.1,-,N/A,,Clear,240,2013-04-10 22:53:00
7:53 PM,79.0,48.0,34,29.85,10.0,Variable,3.5,-,N/A,,Clear,0,2013-04-10 23:53:00
8:53 PM,78.1,46.9,33,29.85,10.0,Calm,Calm,-,N/A,,Clear,0,2013-04-11 00:53:00
9:53 PM,73.9,50.0,43,29.84,10.0,Calm,Calm,-,N/A,,Clear,0,2013-04-11 01:53:00
10:53 PM,73.0,48.9,42,29.84,10.0,Calm,Calm,-,N/A,,Clear,0,2013-04-11 02:53:00
11:53 PM,73.0,48.0,41,29.84,10.0,Variable,5.8,-,N/A,,Clear,0,2013-04-11 03:53:00